TimeMST,TemperatureF,Dew PointF,Humidity,Sea Level PressureIn,VisibilityMPH,Wind Direction,Wind SpeedMPH,Gust SpeedMPH,PrecipitationIn,Events,Conditions,WindDirDegrees,DateUTC
12:53 AM,21.0,15.1,78,30.35,10.0,East,3.5,-,N/A,,Clear,90,2014-01-18 07:53:00
1:53 AM,17.1,12.9,84,30.38,10.0,East,6.9,-,N/A,,Clear,80,2014-01-18 08:53:00
2:53 AM,18.0,12.9,81,30.39,10.0,East,5.8,-,N/A,,Clear,80,2014-01-18 09:53:00
3:53 AM,19.9,14.0,78,30.38,10.0,SE,11.5,-,N/A,,Clear,140,2014-01-18 10:53:00
4:53 AM,19.9,12.9,74,30.38,10.0,ESE,5.8,-,N/A,,Clear,110,2014-01-18 11:53:00
5:53 AM,17.1,10.9,77,30.42,10.0,ESE,8.1,-,N/A,,Clear,110,2014-01-18 12:53:00
6:53 AM,19.0,12.9,77,30.44,10.0,ENE,5.8,-,N/A,,Clear,70,2014-01-18 13:53:00
7:53 AM,19.9,12.0,71,30.45,10.0,Calm,Calm,-,N/A,,Clear,0,2014-01-18 14:53:00
8:53 AM,21.0,14.0,74,30.49,10.0,East,3.5,-,N/A,,Clear,90,2014-01-18 15:53:00
9:53 AM,26.1,17.1,69,30.49,10.0,ESE,8.1,-,N/A,,Clear,110,2014-01-18 16:53:00
10:53 AM,33.1,17.1,52,30.48,10.0,SSE,9.2,-,N/A,,Clear,160,2014-01-18 17:53:00
11:53 AM,35.1,19.9,54,30.44,10.0,ESE,10.4,-,N/A,,Clear,110,2014-01-18 18:53:00
12:53 PM,39.0,21.0,49,30.39,10.0,SE,3.5,-,N/A,,Clear,130,2014-01-18 19:53:00
1:53 PM,39.9,21.9,49,30.37,10.0,East,4.6,-,N/A,,Clear,100,2014-01-18 20:53:00
2:53 PM,42.1,21.9,45,30.35,10.0,NNE,4.6,-,N/A,,Clear,30,2014-01-18 21:53:00
3:53 PM,39.9,21.0,47,30.36,10.0,NNW,3.5,-,N/A,,Clear,340,2014-01-18 22:53:00
4:53 PM,37.0,24.1,59,30.38,10.0,Calm,Calm,-,N/A,,Clear,0,2014-01-18 23:53:00
5:53 PM,28.0,21.0,75,30.43,10.0,NW,4.6,-,N/A,,Clear,320,2014-01-19 00:53:00
6:53 PM,24.1,19.0,81,30.44,10.0,Calm,Calm,-,N/A,,Clear,0,2014-01-19 01:53:00
7:53 PM,26.1,19.0,75,30.43,10.0,ENE,4.6,-,N/A,,Clear,60,2014-01-19 02:53:00
8:53 PM,26.1,19.9,78,30.43,10.0,East,3.5,-,N/A,,Clear,90,2014-01-19 03:53:00
9:53 PM,27.0,18.0,69,30.42,10.0,East,6.9,-,N/A,,Clear,80,2014-01-19 04:53:00
10:53 PM,21.9,15.1,75,30.41,10.0,East,5.8,-,N/A,,Clear,90,2014-01-19 05:53:00
11:53 PM,26.1,17.1,69,30.38,10.0,ESE,12.7,-,N/A,,Clear,110,2014-01-19 06:53:00